Regional Weather Roundup
Issued by NWS San Diego, CA

Home | Current Version | Previous Version | Text Only | Print | Product List | Glossary On
Versions: 1 2 3 4 5 6 7 8 9 10 11 12 13 14 15 16 17 18 19 20 21 22 23 24 25 26 27 28 29 30 31 32 33 34 35 36 37 38 39 40 41 42 43 44 45 46 47 48 49 50
000
ASUS46 KSGX 160810
RWRSGX

SAN DIEGO HOURLY WEATHER ROUNDUP
NATIONAL WEATHER SERVICE SAN DIEGO CA
100 AM PDT TUE SEP 16 2014

NOTE: "FAIR" INDICATES FEW OR NO CLOUDS BELOW 12,000 FEET WITH NO
SIGNIFICANT WEATHER AND/OR OBSTRUCTIONS TO VISIBILITY.

CAZ042-043-060-061-PZZ750-775-160900-

GREATER SAN DIEGO AREA

CITY           SKY/WX    TMP DP  RH WIND       PRES   REMARKS
LINDBERGH FLD  CLEAR     75  70  84 NW5       29.80S
POINT LOMA       N/A     73  68  85 NW10        N/A
NATIONAL CITY    N/A     76  72  87 CALM      29.79F
CHULA VISTA      N/A     74  72  93 CALM      29.72F
IMPERIAL BEACH CLEAR     72  70  93 SW3       29.79S
BROWN FIELD    CLEAR     74  70  87 CALM      29.80S
MIRAMAR MCAS   CLEAR     76  64  66 N6        29.80F
MONTGOMERY FLD CLEAR     77  64  64 N6        29.80S

$$

NORTH SAN DIEGO COUNTY

CITY           SKY/WX    TMP DP  RH WIND       PRES   REMARKS
CAMP PENDLETON CLEAR     71  65  81 NW3       29.79S HAZE
OCEANSIDE AP   CLEAR     72  65  78 CALM      29.79S
OCEANSIDE HBR    N/A     74  72  94 CALM      29.82S
VISTA            N/A     73  66  78 CALM      29.77S
CARLSBAD       CLEAR     74  70  87 CALM      29.79F
DEL MAR          N/A     72  70  93 CALM      29.81F
LA JOLLA SCRIP   N/A     73  71  94 N1        29.76F
FALLBROOK        N/A     75  67  77 CALM      29.79
ESCONDIDO        N/A     78  65  63 CALM      29.79F
SAN MARCOS       N/A     75  65  70 CALM      29.77S
POWAY            N/A     74  63  66 CALM      29.79F

$$

EAST SAN DIEGO COUNTY

CITY           SKY/WX    TMP DP  RH WIND       PRES   REMARKS
RAMONA         CLEAR     73  54  51 CALM      29.85F
SANTEE LAKES     N/A     75  62  62 CALM      29.79F
LA MESA          N/A     78  71  78 CALM      29.71F
JAMUL            N/A     75  64  67 CALM      29.76F
DESCANSO N       N/A     71  53  52 CALM      29.67F
MT. LAGUNA OBS   N/A     71  49  46 N7        29.76S
CAMPO            N/A     67  53  61 NE6       29.91F

$$

ORANGE COUNTY AND THE LOS ANGELES BASIN

CITY           SKY/WX    TMP DP  RH WIND       PRES   REMARKS
JOHN WAYNE AP  CLEAR     80  63  55 S5        29.78F
LAKE FOREST FR   N/A     78  56  46 CALM      29.66F
SANTA ANA        N/A     76  67  72 CALM      29.73F
HUNTINGTON BCH   N/A     73  66  80 CALM      29.81S
LOS ALAMITOS   FAIR      74  64  69 E3        29.78S
FULLERTON      CLEAR     78  62  57 SE5       29.78R
LONG BEACH     CLEAR     75  64  68 SE7       29.78S
L.A. AP        CLEAR     77  61  57 E3        29.78S
L.A. DOWNTOWN  CLEAR     80  62  54 CALM      29.77F

$$

THE INLAND EMPIRE

CITY           SKY/WX    TMP DP  RH WIND       PRES   REMARKS
CHINO          CLEAR     78  59  51 SE3       29.82R
ONTARIO        CLEAR     85  56  37 CALM      29.82S
RIVERSIDE AP   CLEAR     83  56  39 CALM      29.81S
RIV CYN CREST    N/A     84  63  48 S3        29.79S
MORENO VALLEY    N/A     84  56  38 CALM      29.06S
MARCH ARB      CLEAR     78  51  38 SE1       29.86S
HORSETHIEF CYN   N/A     82  46  28 SW3       29.79F
PERRIS           N/A     84  57  39 SE2       29.82S
MENIFEE          N/A     84  61  45 CALM      29.89S
HEMET EAST       N/A     81  47  30 CALM      29.79S
FRENCH VALLEY  FAIR      81  57  44 CALM      29.85S
TEMECULA         N/A     80  60  51 CALM      29.81R

$$

SAN BERNARDINO AND RIVERSIDE COUNTY MOUNTAINS

CITY           SKY/WX    TMP DP  RH WIND       PRES   REMARKS
BIG BEAR AP    CLEAR     52  41  66 CALM      30.28S
ANGELUS OAKS     N/A     65  47  51 CALM      29.74F
PINE COVE        N/A     69  49  49 CALM      29.72F

$$

SOUTHERN DESERT INCLUDING THE COACHELLA VALLEY

CITY           SKY/WX    TMP DP  RH WIND       PRES   REMARKS
PALM SPRINGS   CLEAR     95  52  23 MISG      29.79R
THOUSAND PALMS   N/A     91  71  51 SE10      29.73R HX  97
PALM DESERT      N/A     91  76  60 SE3         N/A  HX 103
THERMAL        CLEAR     90  74  59 S13       29.74R HX  99
BLYTHE         CLEAR     88  70  55 S16       29.78R
IMPERIAL AP    CLEAR     89  76  65 SE17      29.73R HX 100
EL CENTRO NAS  CLEAR     90  74  59 SE13      29.73R HX  99
YUMA AZ        PTCLDY    89  71  55 S12       29.78S HX  95

$$

UPPER DESERT

CITY           SKY/WX    TMP DP  RH WIND       PRES   REMARKS
VICTORVILLE AP CLEAR     81  46  30 CALM      29.98S
HESPERIA         N/A     77  49  36 W6        29.90S
APPLE VALLEY     N/A     75  51  43 CALM      30.04S
PALMDALE       PTCLDY    82  47  29 CALM      29.96S
LANCASTER      PTCLDY    82  49  31 W13       29.94S
EDWARDS AFB    CLEAR     79  46  31 SW6       29.91S
DAGGETT        CLEAR     84  48  28 W9        29.89R
29 PALMS N     CLEAR     83  53  35 NW8       29.96R
NEEDLES        CLEAR     92  55  28 CALM      29.80R

$$

REGIONAL REPORTS

CITY           SKY/WX    TMP DP  RH WIND       PRES   REMARKS
SANTA BARBARA  CLEAR     73  63  70 S9        29.76S
SANDBERG       CLEAR     75  45  34 N18       30.11F
MT. WILSON       N/A     72  43  35 N2          N/A
LAS VEGAS NV   CLEAR     87  46  24 S9        29.86S
PHOENIX AZ     MOCLDY    90  63  40 E9        29.87R
TIJUANA        CLEAR     75  66  73 CALM      29.82F
ENSENADA NW      N/A     75  32  21 CALM      29.75S

$$

OFFSHORE ISLANDS

CITY           SKY/WX    TMP DP  RH WIND       PRES   REMARKS
CATALINA ARPT  CLEAR     84  46  26 NW12      29.89S
SAN NICOLAS IS CLEAR    N/A N/A N/A W24       29.80F

$$

MARINE AND OFFSHORE BUOY REPORTS

STATION/POSITION SKY/WX   TEMP    WIND        PRES    SWELL
                          AIR SEA DIR/SP/G            HT/PER/DIR
                          (F)     (DEG/KT/KT) (MB)    (FT/S/D)
TANNER BANKS               69 69  320/ 17/ 23 1009.5F   3/220/19
S CLEMENTE BASIN           73 74  280/ 10/ 12 1008.4F   3/230/21
SAN NICOLAS IS.               67                N/A     3/210/20
SO. S. ROSA ISLA           68 68  320/ 23/ 29 1009.0F
W. S. BARBARA CH           65 64  320/ 25/ 31 1009.2F   2/350/21
M. S. BARBARA CH           72 68  270/ 14/ 16 1008.2F
S. MONICA BASIN            73 74  330/  8/ 10 1007.9S   3/270/ 6
S PEDRO CHANNEL               73                N/A     2/170/14
DANA POINT                    70                N/A     2/200/20
CMP PENDLETON NS              72                N/A     3/220/20
OCEANSIDE OFFSHR              73                N/A     2/210/20
TORREY PINES OTR              76                N/A     3/220/20
LA JOLLA 1                 74 71   40/  2/  2 1008.8S
MISSION BAY BUOY              75                N/A     3/210/20
SAN DIEGO BAY                                 1009.1S

$$




USA.gov is the U.S. government's official web portal to all federal, state and local government web resources and services.